{"data":{"norad_id":59166,"intl_designator":"2024-044Q","name":"STARLINK-31342","alt_names":[],"object_type":"PAYLOAD","status":"ACTIVE","operator":null,"country":"US","launch_date":"2024-03-04","launch_site_code":"AFETR","launch_vehicle":null,"mission":null,"orbit_class":"UNKNOWN","rcs_meters":null,"size_class":null,"mass_kg":null,"dimensions":null,"purposes":["comms"],"wikipedia_slug":null,"has_3d_model":false,"image_url":null,"decayed_at":null,"tle_current":{"epoch":"2026-09-20T21:58:43.652928Z","epoch_age_seconds":122846,"freshness":"FRESH","line1":"1 59166U 24044Q   26263.91578302 -.00000162  00000+0  36487-5 0  9997","line2":"2 59166  43.0017  84.4239 0001410 265.7796  94.2895 15.27574545143451","mean_motion":15.27574545,"eccentricity":0.000141,"inclination_deg":43.0017,"raan_deg":84.4239,"arg_perigee_deg":265.7796,"mean_anomaly_deg":94.2895,"bstar":3.6487e-6,"rev_number":14345,"period_min":94.267085342143,"perigee_km":482.09800077801,"apogee_km":484.03285986336,"semimajor_km":6861.2024303207,"source":"CELESTRAK","updated_at":"2026-09-21T09:00:34.059088Z"}}}